This is the latest recevied weather packets stored in our database for station/object KD5VOO. If no packets are shown the sender has not sent any weather packets the latest 1 day(s).
| Time | Temp. | Humidity | Pressure | Rain* | Wind** | Luminosity | Snow |
|---|---|---|---|---|---|---|---|
| 1777987583 | 19.44° C | 60% | 1009.9 hPa | 0 mm | 0 m/s | 56 W/m² | - |
| 1777987281 | 18.89° C | 61% | 1009.9 hPa | 0 mm | 0 m/s | 53 W/m² | - |
| 1777986977 | 18.33° C | 61% | 1009.9 hPa | 0 mm | 0 m/s | 55 W/m² | - |
| 1777986675 | 18.33° C | 62% | 1009.9 hPa | 0 mm | 0 m/s | 50 W/m² | - |
| 1777986373 | 17.78° C | 63% | 1009.9 hPa | 0 mm | 0 m/s | 45 W/m² | - |
| 1777986072 | 17.22° C | 65% | 1009.9 hPa | 0 mm | 0 m/s | 42 W/m² | - |
| 1777985768 | 16.67° C | 66% | 1009.9 hPa | 0 mm | 0 m/s | 33 W/m² | - |
| 1777985465 | 16.67° C | 67% | 1009.5 hPa | 0 mm | 0 m/s | 26 W/m² | - |
| 1777985161 | 16.11° C | 68% | 1009.2 hPa | 0 mm | 0 m/s | 25 W/m² | - |
| 1777984857 | 15.56° C | 69% | 1009.2 hPa | 0 mm | 0 m/s | 25 W/m² | - |
| 1777984554 | 15.56° C | 69% | 1009.5 hPa | 0 mm | 0 m/s | 25 W/m² | - |
| 1777984250 | 15° C | 69% | 1009.5 hPa | 0 mm | 0 m/s | 21 W/m² | - |
| 1777983947 | 15° C | 69% | 1009.5 hPa | 0 mm | 0 m/s | 17 W/m² | - |
| 1777983644 | 15° C | 69% | 1009.2 hPa | 0 mm | 0 m/s | 14 W/m² | - |
| 1777983340 | 15° C | 69% | 1009.2 hPa | 0 mm | 0 m/s | 13 W/m² | - |
| 1777983038 | 14.44° C | 69% | 1009.2 hPa | 0 mm | 0 m/s | 13 W/m² | - |
| 1777982734 | 14.44° C | 69% | 1009.2 hPa | 0 mm | 0 m/s | 12 W/m² | - |
| 1777982429 | 14.44° C | 69% | 1009.2 hPa | 0 mm | 0 m/s | 11 W/m² | - |
| 1777982124 | 14.44° C | 69% | 1009.5 hPa | 0 mm | 0 m/s | 10 W/m² | - |
| 1777981822 | 13.89° C | 69% | 1009.5 hPa | 0 mm | 0 m/s | 7 W/m² | - |
| 1777981519 | 13.89° C | 69% | 1009.5 hPa | 0 mm | 0 m/s | 5 W/m² | - |
| 1777981215 | 13.89° C | 69% | 1009.2 hPa | 0 mm | 0 m/s | 4 W/m² | - |
| 1777980912 | 13.89° C | 69% | 1009.2 hPa | 0 mm | 0 m/s | 2 W/m² | - |
| 1777980608 | 13.89° C | 69% | 1009.2 hPa | 0 mm | 0 m/s | 1 W/m² | - |
| 1777980305 | 13.89° C | 68% | 1009.2 hPa | 0 mm | 0 m/s | 0 W/m² | - |
* Rain latest hour (hover to see other rain measurements)
** Current wind speed in m/s (hover to see current wind gust speed)